When you browse on this site, cookies collect data to enhance your experience and personalize the content and advertising you see.
Visit our Privacy Policy to learn more. By continuing to use the site, you agree to this use of cookies and data.
  • In Romania
  • List of Countries
  • For 7 days
  • Water Temperature
  • Weather Map
  • Weather Widgets
  • user-avatar
    Login

    Hourly Weather São Paulo

    Today, 14 November, Thursday

    Time Temperature Precipitation Wind Pressure Humidity
    00:00 +21°C° 1.5 mm 2 mps 697 mmHg 88%
    01:00 +21°C° 2.3 mm 2 mps 696 mmHg 88%
    02:00 +21°C° 2.3 mm 2 mps 696 mmHg 88%
    03:00 +21°C° 2.3 mm 2 mps 696 mmHg 89%
    04:00 +21°C° 0.4 mm 2 mps 696 mmHg 87%
    05:00 +21°C° 0.4 mm 2 mps 695 mmHg 85%
    06:00 +21°C° 0.4 mm 3 mps 695 mmHg 84%
    07:00 +21°C° 0.9 mm 2 mps 696 mmHg 85%
    08:00 +23°C° 0.9 mm 2 mps 696 mmHg 87%
    09:00 +23°C° 0.9 mm 2 mps 697 mmHg 88%
    10:00 +23°C° 3.8 mm 2 mps 696 mmHg 87%
    11:00 +22°C° 3.8 mm 3 mps 696 mmHg 87%
    12:00 +22°C° 3.8 mm 4 mps 695 mmHg 86%
    13:00 +23°C° 0.2 mm 4 mps 695 mmHg 81%
    14:00 +25°C° 0.2 mm 4 mps 695 mmHg 77%
    15:00 +26°C° 0.2 mm 5 mps 694 mmHg 73%
    16:00 +26°C° 0.5 mm 5 mps 694 mmHg 75%
    17:00 +25°C° 0.5 mm 5 mps 694 mmHg 76%
    18:00 +25°C° 0.5 mm 4 mps 693 mmHg 78%
    19:00 +23°C° 0.1 mm 4 mps 694 mmHg 78%
    20:00 +23°C° 0.1 mm 4 mps 694 mmHg 78%
    21:00 +23°C° 0.1 mm 4 mps 694 mmHg 79%
    22:00 +23°C° 0 mm 4 mps 693 mmHg 80%
    23:00 +22°C° 0 mm 4 mps 693 mmHg 81%

    Tomorrow, 15 November, Friday

    Time Temperature Precipitation Wind Pressure Humidity
    00:00 +22°C° 0 mm 4 mps 693 mmHg 82%
    01:00 +22°C° 0.2 mm 3 mps 693 mmHg 83%
    02:00 +22°C° 0.2 mm 3 mps 693 mmHg 84%
    03:00 +23°C° 0.2 mm 2 mps 692 mmHg 86%
    04:00 +23°C° 0.1 mm 2 mps 693 mmHg 86%
    05:00 +23°C° 0.1 mm 2 mps 693 mmHg 87%
    06:00 +23°C° 0.1 mm 1 mps 693 mmHg 87%
    07:00 +23°C° 0.2 mm 1 mps 694 mmHg 83%
    08:00 +24°C° 0.2 mm 1 mps 694 mmHg 79%
    09:00 +25°C° 0.2 mm 1 mps 695 mmHg 75%
    10:00 +25°C° 0.4 mm 2 mps 695 mmHg 73%
    11:00 +26°C° 0.4 mm 2 mps 694 mmHg 71%
    12:00 +26°C° 0.4 mm 2 mps 694 mmHg 69%
    13:00 +26°C° 0.3 mm 3 mps 694 mmHg 68%
    14:00 +26°C° 0.3 mm 3 mps 693 mmHg 68%
    15:00 +26°C° 0.3 mm 3 mps 693 mmHg 67%
    16:00 +25°C° 0.2 mm 3 mps 693 mmHg 73%
    17:00 +22°C° 0.2 mm 4 mps 693 mmHg 79%
    18:00 +20°C° 0.2 mm 4 mps 693 mmHg 84%
    19:00 +20°C° 0.1 mm 4 mps 694 mmHg 83%
    20:00 +20°C° 0.1 mm 3 mps 694 mmHg 81%
    21:00 +19°C° 0.1 mm 3 mps 695 mmHg 79%
    22:00 +19°C° 0 mm 3 mps 695 mmHg 79%
    23:00 +18°C° 0 mm 3 mps 694 mmHg 79%

    Day after tomorrow, 16 November, Saturday

    Time Temperature Precipitation Wind Pressure Humidity
    00:00 +18°C° 0 mm 2 mps 694 mmHg 78%
    01:00 +17°C° 0 mm 2 mps 694 mmHg 80%
    02:00 +17°C° 0 mm 2 mps 694 mmHg 82%
    03:00 +17°C° 0 mm 2 mps 693 mmHg 84%
    04:00 +17°C° 0 mm 2 mps 694 mmHg 84%
    05:00 +17°C° 0 mm 2 mps 694 mmHg 84%
    06:00 +17°C° 0 mm 2 mps 694 mmHg 83%
    07:00 +19°C° 0 mm 2 mps 694 mmHg 77%
    08:00 +20°C° 0 mm 2 mps 695 mmHg 71%
    09:00 +22°C° 0 mm 3 mps 695 mmHg 65%
    10:00 +22°C° 0 mm 3 mps 695 mmHg 63%
    11:00 +24°C° 0 mm 3 mps 695 mmHg 61%
    12:00 +25°C° 0 mm 3 mps 695 mmHg 59%
    13:00 +25°C° 0 mm 3 mps 695 mmHg 58%
    14:00 +25°C° 0 mm 3 mps 695 mmHg 57%
    15:00 +25°C° 0 mm 3 mps 694 mmHg 57%
    16:00 +24°C° 0 mm 3 mps 694 mmHg 62%
    17:00 +22°C° 0 mm 4 mps 694 mmHg 67%
    18:00 +21°C° 0 mm 4 mps 694 mmHg 72%
    19:00 +20°C° 0 mm 4 mps 694 mmHg 75%
    20:00 +19°C° 0 mm 3 mps 695 mmHg 78%
    21:00 +18°C° 0 mm 3 mps 695 mmHg 81%
    22:00 +17°C° 0 mm 3 mps 695 mmHg 81%
    23:00 +17°C° 0 mm 3 mps 695 mmHg 82%

    17 November, Sunday

    Time Temperature Precipitation Wind Pressure Humidity
    00:00 +17°C° 0 mm 3 mps 695 mmHg 82%
    01:00 +16°C° 0 mm 2 mps 695 mmHg 83%
    02:00 +16°C° 0 mm 2 mps 695 mmHg 84%
    03:00 +16°C° 0 mm 2 mps 695 mmHg 85%
    04:00 +16°C° 0 mm 2 mps 695 mmHg 85%
    05:00 +16°C° 0 mm 2 mps 695 mmHg 84%
    06:00 +16°C° 0 mm 1 mps 695 mmHg 84%
    07:00 +18°C° 0 mm 2 mps 696 mmHg 70%
    08:00 +20°C° 0 mm 2 mps 697 mmHg 56%
    09:00 +22°C° 0 mm 3 mps 697 mmHg 41%
    10:00 +24°C° 0 mm 3 mps 697 mmHg 39%
    11:00 +26°C° 0 mm 3 mps 697 mmHg 37%
    12:00 +28°C° 0 mm 4 mps 697 mmHg 34%
    13:00 +27°C° 0 mm 4 mps 697 mmHg 36%
    14:00 +27°C° 0 mm 4 mps 696 mmHg 38%
    15:00 +27°C° 0 mm 5 mps 696 mmHg 40%
    16:00 +25°C° 0 mm 4 mps 696 mmHg 47%
    17:00 +23°C° 0 mm 4 mps 696 mmHg 55%
    18:00 +21°C° 0 mm 4 mps 696 mmHg 62%
    19:00 +20°C° 0 mm 4 mps 696 mmHg 68%
    20:00 +19°C° 0 mm 4 mps 697 mmHg 74%
    21:00 +18°C° 0 mm 3 mps 697 mmHg 80%
    22:00 +18°C° 0 mm 3 mps 697 mmHg 81%
    23:00 +18°C° 0 mm 3 mps 697 mmHg 82%

    18 November, Monday

    Time Temperature Precipitation Wind Pressure Humidity
    00:00 +17°C° 0 mm 3 mps 697 mmHg 83%
    01:00 +17°C° 0 mm 3 mps 696 mmHg 83%
    02:00 +17°C° 0 mm 3 mps 696 mmHg 84%
    03:00 +17°C° 0 mm 2 mps 696 mmHg 85%
    04:00 +17°C° 0 mm 2 mps 696 mmHg 84%
    05:00 +17°C° 0 mm 2 mps 696 mmHg 83%
    06:00 +17°C° 0 mm 2 mps 697 mmHg 82%
    07:00 +18°C° 0 mm 3 mps 697 mmHg 76%
    08:00 +20°C° 0 mm 3 mps 698 mmHg 69%
    09:00 +21°C° 0 mm 3 mps 698 mmHg 62%
    10:00 +24°C° 0 mm 3 mps 698 mmHg 60%
    11:00 +25°C° 0 mm 3 mps 698 mmHg 57%
    12:00 +26°C° 0 mm 3 mps 699 mmHg 55%
    13:00 +26°C° 0 mm 4 mps 698 mmHg 56%
    14:00 +25°C° 0 mm 4 mps 697 mmHg 58%
    15:00 +25°C° 0 mm 5 mps 697 mmHg 60%
    16:00 +23°C° 0 mm 5 mps 697 mmHg 65%
    17:00 +21°C° 0 mm 5 mps 697 mmHg 70%
    18:00 +20°C° 0 mm 5 mps 697 mmHg 75%
    19:00 +20°C° 0 mm 4 mps 697 mmHg 77%
    20:00 +19°C° 0 mm 4 mps 698 mmHg 79%
    21:00 +19°C° 0 mm 3 mps 698 mmHg 81%
    22:00 +18°C° 0 mm 3 mps 698 mmHg 83%
    23:00 +18°C° 0 mm 3 mps 698 mmHg 84%

    19 November, Tuesday

    Time Temperature Precipitation Wind Pressure Humidity
    00:00 +18°C° 0 mm 3 mps 698 mmHg 86%
    01:00 +18°C° 0 mm 3 mps 698 mmHg 85%
    02:00 +18°C° 0 mm 3 mps 697 mmHg 85%
    03:00 +18°C° 0 mm 2 mps 697 mmHg 85%
    04:00 +18°C° 0 mm 2 mps 697 mmHg 85%
    05:00 +18°C° 0 mm 3 mps 697 mmHg 86%
    06:00 +18°C° 0 mm 3 mps 698 mmHg 86%
    07:00 +19°C° 0 mm 3 mps 698 mmHg 82%
    08:00 +20°C° 0 mm 3 mps 698 mmHg 78%
    09:00 +20°C° 0 mm 3 mps 699 mmHg 74%
    10:00 +21°C° 0 mm 3 mps 699 mmHg 70%
    11:00 +22°C° 0 mm 3 mps 699 mmHg 67%
    12:00 +25°C° 0 mm 3 mps 699 mmHg 63%
    13:00 +23°C° 0 mm 4 mps 698 mmHg 64%
    14:00 +23°C° 0 mm 4 mps 698 mmHg 64%
    15:00 +23°C° 0 mm 4 mps 698 mmHg 65%
    16:00 +22°C° 0 mm 4 mps 698 mmHg 69%
    17:00 +22°C° 0 mm 4 mps 698 mmHg 74%
    18:00 +21°C° 0 mm 4 mps 698 mmHg 78%
    19:00 +20°C° 0 mm 4 mps 698 mmHg 80%
    20:00 +20°C° 0 mm 3 mps 699 mmHg 82%
    21:00 +20°C° 0 mm 3 mps 699 mmHg 84%
    22:00 +19°C° 0 mm 3 mps 699 mmHg 85%
    23:00 +19°C° 0 mm 3 mps 699 mmHg 85%
    Show more